This demonstration page uses our WeatherBlox Daily Observations layout. Learn more.

39.29038, -76.61219

Hourly Observations for June 22, 2019

Temp ( °F °C ) Dew Point ( °F °C ) Humidity (%) Winds ( mph kmh ) Pressure ( in mb ) Visibility ( mi km ) Precip ( " mm )
12:54 am 00:54 undefined 73 22.8 50 10 44 44 undefined N/A 29.91 1013 N/A 0 0
1:54 am 01:54 undefined 71 21.7 50 10 47 47 undefined N/A 29.91 1013 N/A 0 0
2:54 am 02:54 undefined 70 21.1 48 8.9 46 46 undefined N/A 29.91 1013 N/A 0 0
3:54 am 03:54 undefined 68 20 49 9.4 51 51 undefined N/A 29.94 1014 N/A 0 0
4:54 am 04:54 undefined 67 19.4 48 8.9 51 51 undefined N/A 29.94 1014 N/A 0 0
5:54 am 05:54 undefined 66 18.9 48 8.9 52 52 undefined N/A 29.94 1014 N/A 0 0
6:54 am 06:54 undefined 67 19.4 47 8.3 49 49 undefined N/A 29.97 1015 N/A 0 0
7:54 am 07:54 undefined 71 21.7 48 8.9 44 44 undefined N/A 29.97 1015 N/A 0 0
8:54 am 08:54 undefined 73 22.8 52 11.1 48 48 undefined N/A 29.97 1015 N/A 0 0
9:54 am 09:54 undefined 75 23.9 51 10.6 43 43 undefined N/A 29.97 1015 N/A 0 0
10:54 am 10:54 undefined 78 25.6 50 10 37 37 undefined N/A 29.97 1015 N/A 0 0
11:54 am 11:54 undefined 79 26.1 49 9.4 35 35 undefined N/A 29.97 1015 N/A 0 0
12:54 pm 12:54 undefined 80 26.7 49 9.4 34 34 undefined N/A 29.97 1015 N/A 0 0
1:54 pm 13:54 undefined 81 27.2 48 8.9 32 32 undefined N/A 29.97 1015 N/A 0 0
2:54 pm 14:54 undefined 81 27.2 46 7.8 29 29 undefined N/A 29.97 1015 N/A 0 0
3:54 pm 15:54 undefined 82 27.8 45 7.2 27 27 undefined N/A 29.97 1015 N/A 0 0
4:54 pm 16:54 undefined 82 27.8 46 7.8 28 28 undefined N/A 29.97 1015 N/A 0 0
5:54 pm 17:54 undefined 81 27.2 46 7.8 29 29 undefined N/A 29.97 1015 N/A 0 0
6:54 pm 18:54 undefined 80 26.7 47 8.3 31 31 undefined N/A 29.97 1015 N/A 0 0
7:54 pm 19:54 undefined 79 26.1 49 9.4 35 35 undefined N/A 29.97 1015 N/A 0 0
8:54 pm 20:54 undefined 79 26.1 48 8.9 34 34 undefined N/A 29.97 1015 N/A 0 0
9:54 pm 21:54 undefined 77 25 50 10 39 39 undefined N/A 30 1016 N/A 0 0
10:54 pm 22:54 undefined 76 24.4 50 10 40 40 undefined N/A 30.03 1017 N/A 0 0
11:54 pm 23:54 undefined 75 23.9 51 10.6 43 43 undefined N/A 30.03 1017 N/A 0 0

Powered by AerisWeather